Location: Little Arabia
(41.4620°N, 81.7687°W)
Time: 20:55:44
(UTC+00:00)

Cosmos 968 Rocket - Pass Details

Date: 29 October 2020
Orbit: 741 x 770 km, 74.0° (Epoch: 03 December)

Event Time Altitude Azimuth Distance (km) Brightness Sun altitude
Rises 23:17:32 0° 344° (NNW) 3,234 6.8 -10.4°
Reaches altitude 10° 23:19:59 10° 349° (N) 2,300 6.0 -10.8°
Maximum altitude 23:25:05 55° 67° (ENE) 908 3.5 -11.8°
Drops below altitude 10° 23:30:08 10° 145° (SE) 2,266 5.7 -12.7°
Sets 23:32:31 0° 150° (SSE) 3,181 6.5 -13.2°
